Regional Weather Roundup
Issued by NWS

Home | Current Version | Previous Version | Text Only | Print | Product List | Glossary Off
Versions: 1 2 3 4 5 6 7 8 9 10 11 12 13 14 15 16 17 18 19 20 21 22 23 24 25 26 27 28 29 30 31 32 33 34 35 36 37 38 39 40 41 42 43 44 45 46 47 48 49 50

000
ASUS43 KDMX 270406
RWRIA

WEATHER ROUNDUP FOR IOWA
NATIONAL WEATHER SERVICE DES MOINES IA
1100 PM CDT THU APR 26 2018

NOTE: "FAIR" INDICATES FEW OR NO CLOUDS BELOW 12,000 FEET WITH NO
SIGNIFICANT WEATHER AND/OR OBSTRUCTIONS TO VISIBILITY.

* - THESE STATIONS ARE NOT NWS STATIONS...THUS NOT UNDER NWS
QUALITY CONTROL.  THEY ALSO DO NOT REPORT WEATHER SUCH
AS PRECIPITATION OR FOG.

IAZ001>003-012>014-020>022-031>034-043>046-270500-
   NORTHWEST IOWA

CITY           SKY/WX    TMP DP  RH WIND       PRES   REMARKS
CARROLL *      CLEAR     45  32  61 NW10      30.03R
CHEROKEE *     CLEAR     41  32  71 CALM      30.04S
DENISON *      CLEAR     45  30  57 N3        30.06S
LE MARS *      CLEAR     43  30  61 CALM      30.05R
ORANGE CITY *  CLEAR     50  34  53 N5        30.04S
SHELDON *      CLEAR     39  34  81 CALM      30.02S
SIOUX CITY     CLEAR     45  29  53 NW3       30.05S
SPENCER        CLEAR     42  34  73 N7        30.02F
STORM LAKE *   CLEAR     45  32  61 N9        30.03S
$$

IAZ055>058-069>071-079>083-090>094-270500-
   SOUTHWEST IOWA

CITY           SKY/WX    TMP DP  RH WIND       PRES   REMARKS
ATLANTIC *     CLEAR     46  30  53 N7        30.04R
AUDUBON *      CLEAR     46  32  57 NW6       30.04S
CLARINDA *     CLEAR     52  28  40 N10       30.06R
COUNCIL BLFS * CLEAR     52  28  40 N8        30.05S
CRESTON *      CLEAR     50  32  50 N12G18    30.03R
HARLAN  *      CLEAR     43  28  56 NW7       30.07S
LAMONI         CLEAR     54  32  43 N17G25    29.99R
RED OAK *      CLEAR     50  30  46 NW9       30.05R
SHENANDOAH *   CLEAR     48  28  46 NW8       30.06R
$$

IAZ047>049-059>061-072>074-084-270500-
   CENTRAL IOWA

CITY           SKY/WX    TMP DP  RH WIND       PRES   REMARKS
AMES           CLEAR     50  32  50 NW14G23   29.98S
ANKENY *       CLEAR     52  34  50 NW12G18   30.00R
BOONE *        CLEAR     50  34  53 NW13      29.98F
CHARITON *     CLEAR     52  34  50 N14G21    29.98R
DES MOINES     CLEAR     53  33  46 NW13G23   29.99R
GRINNELL*      CLEAR     48  33  55 NW17      29.95S
KNOXVILLE *    CLEAR     52  32  46 N13       29.96R
MARSHALLTOWN   CLEAR     48  34  58 NW15      29.94S
NEWTON *       CLEAR     50  30  46 NW21      29.96S
PELLA *        CLEAR     51  30  44 NW15G21   29.98R
PERRY *        FAIR      48  30  49 NW9       30.01S
$$

IAZ004>006-015-016-023>025-035-036-270500-
   NORTH CENTRAL IOWA

CITY           SKY/WX    TMP DP  RH WIND       PRES   REMARKS
ALGONA *       CLEAR     45  36  70 NW9       30.00S
CLARION *      CLEAR     45  32  61 NW13      29.98S
ESTHERVILLE    CLEAR     41  34  76 NW10      30.01S
FORT DODGE *   CLEAR     46  33  60 VRB5      30.00F
MASON CITY     CLEAR     46  34  62 NW16      29.96S
FOREST CITY *  FAIR      45  34  65 NW12      29.97S
WEBSTER CITY * CLEAR     46  34  61 NW15      29.97S
IOWA FALLS *   FAIR      48  34  58 NW18      29.97S
$$

IAZ007>011-017>019-026>030-037>042-050>054-066-270500-
   NORTHEAST IOWA

CITY           SKY/WX    TMP DP  RH WIND       PRES   REMARKS
CEDAR RAPIDS   FAIR      53  35  50 NW20      29.88R
CHARLES CITY * FAIR      48  32  53 NW15G22   29.92S
CLINTON *      FAIR      48  36  63 W8        29.84R
DECORAH *      FAIR      52  32  46 NW10      29.86F
DUBUQUE        FAIR      55  38  52 NW13      29.84R
MONTICELLO *   FAIR      54  39  58 NW13      29.85S
OELWEIN *      FAIR      50  36  57 NW16G23   29.89F
WATERLOO       FAIR      49  36  61 NW13      29.91S
$$

IAZ064-065-067-068-078-270500-
   EAST CENTRAL IOWA

CITY           SKY/WX    TMP DP  RH WIND       PRES   REMARKS
DAVENPORT      FAIR      55  39  54 W10       29.86R
IOWA CITY      FAIR      58  36  43 NW13G23   29.89R
MT. PLEASANT * CLEAR     57  39  51 NW15G21   29.89R
MUSCATINE *    FAIR      57  41  54 NW9       29.87R
QUAD CITIES    MOCLDY    60  41  49 NW10      29.83R
$$

IAZ062-063-075>077-085>089-095>099-270500-
   SOUTHEAST IOWA

CITY           SKY/WX    TMP DP  RH WIND       PRES   REMARKS
BURLINGTON     CLEAR     58  33  39 NW8       29.86R
FAIRFIELD *    CLEAR     55  36  47 NW21G29   29.91R
FORT MADISON * CLEAR     57  37  47 NW12      29.89R
KEOKUK *       PTCLDY    57  34  41 W10G17    29.88R
OSKALOOSA *    FAIR      52  33  47 NW20      29.95R
CENTERVILLE *  FAIR      55  34  44 NW16G23   29.97R
OTTUMWA        PTCLDY    54  34  46 NW20      29.94R
WASHINGTON *   CLEAR     55  41  58 NW14G21   29.91R
$$

ABBREVIATIONS USED IN REMARKS
   TC - TEMPERATURES IN CELSIUS
  WCI - WIND CHILL INDEX
   HX - HEAT INDEX
  VSB - VISIBILITY
$$




USA.gov is the U.S. government's official web portal to all federal, state and local government web resources and services.